Torna al catalogo

STARLINK-2579

AttivoComunicazioniVLEO
NORAD 48459·PAYLOAD·🇺🇸 United States

Lanciato May 9, 2021 da Cape Canaveral Space Force Station

Loading…

Prossimi Passaggi (prossime 24 ore)

TLE

AggiornatoSource: CelesTrak SupGP

Epoca: Sep 14, 2026, 20:26 UTC

1 48459C 21040AH  26257.85187500  .00025227  00000+0  81115-3 0  2576
2 48459  53.1612  17.8434 0001258  79.6497 230.0987 15.31691988    16

Traccia STARLINK-2579 in tempo reale con AllMySat

Download on the App Store